Flag for Argentina Weather past 2 weeks in Ushuaia, Tierra del Fuego, Argentina

Now
55 °F

Partly sunny.


Feels Like: 52 °F
Forecast: 45 / 50 °F
Wind: 14 mph from Northeast

Location: Ushuaia Aerodrome

Current Time: Apr 28, 2015 at 3:24:57 PM

Latest Report: Apr 28, 2015 at 3:00 PM


Visibility: N/A

Pressure: 29.71 "Hg

Humidity: 55%

Dew point: 39 °F

Location of UshuaiaLocation

Historic Weather in Ushuaia — Graph

°F

Ushuaia temperature yesterday

Maximum temperature yesterday: 54 °F (at 8:00 PM)
Minimum temperature yesterday: 36 °F (at 1:00 AM)
Average temperature yesterday: 44 °F

Past Weeks' High & Low Weather Summary

 TemperatureHumidityPressure
High54 °F (Apr 27, 8:00 PM)100% (Apr 13, 9:00 PM)30.27 "Hg (Apr 13, 9:00 PM)
Low32 °F (Apr 24, 9:00 AM)38% (Apr 27, 8:00 PM)28.85 "Hg (Apr 19, 7:00 AM)
Average42 °F75%29.58 "Hg
* Reported Apr 13 2:00 PM — Apr 28 2:00 PM, Ushuaia, Weather by CustomWeather, © 2015

Note: Actual official high and low records may vary slightly from our data, if they occured in-between our weather recording intervals... More about our weather records

Advertising

Ushuaia weather history for previous 24 hours

 ConditionsComfort  
Time TempWeatherWind HumidityBarometerVisibility
2:00 PM
Tue, Apr 28
54 °FScattered clouds.No wind63%29.71 "HgN/A
1:00 PM54 °FPassing clouds.5 mph63%29.68 "HgN/A
12:00 PM52 °FScattered clouds.6 mph72%29.65 "HgN/A
11:00 AM50 °FScattered clouds.9 mph82%29.65 "HgN/A
10:00 AM50 °FDrizzle. Partly sunny.18 mph71%29.62 "HgN/A
9:00 AM48 °FPartly sunny.9 mph76%29.62 "HgN/A
8:00 AM46 °FPartly sunny.6 mph82%29.59 "HgN/A
7:00 AM46 °FPassing clouds.7 mph87%29.59 "HgN/A
6:00 AM48 °FDrizzle. Mostly cloudy.8 mph82%29.59 "HgN/A
5:00 AM50 °FLight rain. Passing clouds.12 mph71%29.59 "Hg5 mi
4:00 AM54 °FPassing clouds.21 mph54%29.65 "Hg5 mi
3:00 AM54 °FScattered showers. Passing clouds.15 mph58%29.65 "HgN/A
2:00 AM54 °FPassing clouds.20 mph54%29.68 "HgN/A
10:00 PM
Mon, Apr 27
52 °FPassing clouds.22 mph50%29.83 "HgN/A
9:00 PM52 °FPassing clouds.20 mph50%29.86 "HgN/A
8:00 PM54 °FPassing clouds.25 mph38%29.89 "Hg6 mi
7:00 PM50 °FClear.20 mph76%29.92 "Hg10 mi
6:00 PM48 °FClear.17 mph54%29.95 "Hg10 mi
5:00 PM50 °FSunny.20 mph50%29.98 "Hg10 mi
4:00 PM50 °FSunny.14 mph50%29.98 "Hg10 mi
3:00 PM50 °FSunny.13 mph50%30.01 "Hg10 mi
Weather by CustomWeather, © 2015

See weather overviewHow to use our weather pages